User: anonymous   Login
Location: Albany
(35.0000°S, 118.0000°E)
Time: 17:47:36
(UTC-04:00)
Language:

SJ-6B - Orbit

View from above orbital plane
View from above orbital plane
View from above satellite
View from above satellite

Ground track
Ground track

The orbit data is extracted from the following two-line orbital elements,

1 28415U 04035C   15242.50316560  .00000966  00000-0  70833-4 0  9998
2 28415 097.7954 255.5398 0053952 185.1727 174.8949 15.04872048599762
Epoch (UTC): 30 August 2015 12:04:33
Eccentricity: 0.0053952
inclination: 97.7954°
perigee height: 514 km
apogee height: 589 km
right ascension of ascending node: 255.5398°
argument of perigee: 185.1727°
revolutions per day: 15.04872048
mean anomaly at epoch: 174.8949°
orbit number at epoch: 59976

The dashed part of the orbit path shows where the satellite is in the earth's shadow,  

DLR